SCP
0 0 0 0 0 0 0 0 1 0 0 0 1 1 1 1 1 1 1 1 1 1 1 1 1 1 1 1 1 1 1 2 2 2 2 2 1 1 1 1 1 1 1
0 0 0 0 0 0 0 1 1 1 0 0 1 1 1 0 1 1 1 1 1 1 1 1 1 1 1 1 1 1 1 1 2 2 2 1 1 1 1 1 1 1 1
0 0 0 0 0 0 0 1 1 1 0 0 0 0 0 0 0 1 1 1 1 1 1 1 1 1 1 1 1 1 1 1 1 1 1 1 1 1 1 1 1 1 1
0 0 0 0 0 0 0 0 0 0 0 0 0 0 0 0 0 1 1 1 1 1 1 1 1 1 1 1 1 1 1 1 1 1 1 1 1 1 1 1 1 1 1
0 0 0 0 0 0 0 0 0 0 0 0 0 0 0 0 1 1 1 1 0 0 1 1 1 1 1 1 1 1 1 1 1 1 1 1 1 1 1 1 1 1 1
0 0 0 0 0 0 0 0 0 0 0 0 0 0 0 0 0 1 1 1 0 0 0 1 1 1 1 1 1 1 1 1 1 1 1 1 1 1 1 1 1 1 1
0 0 0 0 0 0 0 0 0 0 0 0 0 0 0 0 0 0 0 0 1 1 1 1 1 1 1 1 2 2 1 1 1 1 1 1 1 1 1 1 1 1 1
0 0 0 0 0 0 0 0 0 0 0 0 0 0 0 0 0 0 0 0 0 1 1 1 1 1 1 1 2 2 1 1 1 1 1 1 1 1 1 1 1 1 1
0 0 0 0 0 0 0 1 0 0 0 0 0 0 0 0 0 0 0 0 0 1 1 1 1 1 2 2 2 2 1 1 1 1 1 1 1 1 1 1 1 1 1
0 0 0 0 0 0 0 0 0 0 0 0 0 0 0 0 0 0 0 0 0 1 1 1 2 3 3 3 3 2 2 1 1 0 1 1 1 1 1 1 1 1 1
0 0 0 0 0 0 0 0 0 0 0 0 0 0 0 0 0 0 0 1 1 1 1 1 2 5 5 4 3 2 1 1 0 0 1 1 1 1 1 1 1 1 1
0 0 0 0 0 0 0 0 0 0 0 0 0 0 0 0 0 0 0 1 1 1 1 1 2 4 4 3 2 1 1 0 0 0 1 1 1 1 1 1 1 1 1
0 0 0 0 0 0 0 0 0 0 0 0 0 0 0 0 0 0 0 0 1 1 1 1 1 1 1 1 1 0 0 0 0 0 1 1 1 1 1 1 1 1 1
0 0 0 0 0 0 0 0 0 0 0 0 0 0 0 0 0 0 0 0 0 0 0 0 0 0 0 0 0 0 0 0 0 0 1 1 1 1 1 1 1 1 1
1 0 0 0 0 0 0 0 0 0 0 0 0 0 0 0 0 0 0 0 0 0 0 0 0 0 0 0 0 0 0 0 0 0 0 1 1 1 1 1 1 0 1
1 1 0 0 0 0 0 0 0 0 0 0 0 0 0 0 0 0 0 0 0 0 0 0 0 0 0 0 0 0 0 0 0 0 0 0 1 1 1 1 0 0 0
1 1 1 0 0 0 0 0 0 0 0 0 0 0 0 0 0 0 0 0 0 0 0 0 0 0 0 0 0 0 0 0 0 0 0 0 0 0 0 0 0 1 1
1 1 1 1 0 0 0 0 0 0 0 0 0 0 0 0 0 0 0 0 0 0 0 0 0 0 0 0 0 0 0 0 0 0 0 0 0 0 0 0 0 0 0
2 2 1 1 1 1 1 0 0 0 0 0 0 0 0 0 0 0 0 0 0 0 0 0 0 0 0 0 0 0 0 0 0 0 0 0 0 0 0 0 0 0 0
2 2 2 2 1 1 1 0 0 0 0 0 0 0 0 0 0 0 0 0 0 0 0 0 0 0 0 0 0 0 0 0 0 0 0 0 0 0 0 0 0 0 0
2 2 2 2 1 1 0 0 0 0 0 0 0 0 0 0 0 0 0 0 0 0 0 0 0 0 0 0 0 0 0 0 0 0 0 0 0 0 0 0 0 0 0
2 2 2 1 1 0 0 0 0 0 0 0 0 0 0 0 0 0 0 0 0 0 0 0 0 0 0 0 0 0 0 0 0 0 0 0 0 0 0 0 0 0 0
2 2 1 1 0 0 0 0 0 0 0 0 0 0 0 0 0 0 0 0 0 0 0 0 0 0 0 0 0 0 0 0 0 0 0 0 0 0 0 0 0 0 0
1 1 1 1 0 0 0 0 0 0 0 0 0 0 0 0 0 0 0 0 0 0 0 0 0 0 0 0 0 0 0 0 0 0 0 0 0 0 0 0 0 0 0
1 1 1 0 0 0 0 0 0 0 0 0 0 0 0 0 0 0 0 0 0 0 0 0 0 0 0 0 0 0 0 0 0 0 0 0 0 0 0 0 0 0 0
0 0 0 0 0 0 0 0 0 0 0 0 0 0 0 0 0 0 0 0 0 0 0 0 0 0 0 0 0 0 0 0 0 0 0 0 0 0 0 0 0 0 0
Wind_Speed
2 3 3 3 4 4 4 5 6 5 5 6 7 6 6 6 6 6 6 6 6 6 6 6 6 6 6 6 7 7 7 8 8 7 6 6 6 6 6 6 5 3 5
1 2 2 2 4 4 5 5 5 5 5 6 6 7 7 6 6 6 7 7 7 7 7 6 6 7 7 6 7 7 7 7 7 7 7 6 6 6 6 5 5 3 5
1 1 2 2 4 4 5 5 5 6 6 6 6 6 7 6 6 6 7 7 6 7 7 7 6 6 6 7 7 7 7 7 7 7 6 3 3 6 5 5 5 5 5
1 1 2 3 4 4 5 5 5 6 6 6 6 6 6 6 6 7 7 7 7 7 7 7 6 6 6 6 7 7 7 7 8 7 4 3 2 5 5 5 5 5 5
2 2 2 4 4 4 5 5 5 5 6 6 6 6 7 6 7 7 7 7 7 7 6 6 6 6 6 6 7 7 8 8 8 6 4 3 2 4 5 5 5 5 5
2 2 2 4 5 5 5 5 6 5 5 5 6 6 7 7 7 7 6 6 6 6 6 6 6 6 6 6 7 7 8 8 6 4 3 3 2 4 5 5 5 6 5
1 2 2 4 5 5 5 6 6 6 6 6 6 7 7 7 7 7 7 7 7 7 7 7 6 6 6 6 7 7 8 8 5 4 3 2 2 4 5 5 5 6 6
1 1 2 4 4 4 5 5 6 6 7 7 7 7 7 7 7 8 7 7 7 7 7 7 7 6 6 7 7 8 7 7 5 4 3 2 3 4 5 5 5 6 5
1 2 2 3 4 4 5 5 5 6 7 7 7 7 7 7 8 8 7 7 7 7 7 6 6 6 7 7 7 8 8 8 4 2 3 2 4 5 5 5 5 5 5
1 2 2 2 3 3 4 5 6 6 7 7 8 8 8 8 8 8 7 7 7 7 7 7 7 7 8 8 8 8 8 6 4 3 2 2 4 5 5 5 5 5 5
1 1 1 2 2 3 2 4 5 6 7 7 6 8 7 5 5 5 6 7 8 9 9 10 10 10 10 9 9 9 7 3 3 2 2 4 5 6 6 6 6 5 5
1 1 0 1 2 2 2 3 2 3 3 3 3 4 3 4 4 5 8 10 10 11 11 12 12 11 9 5 7 8 4 4 3 2 2 5 6 6 6 6 5 5 5
1 0 0 0 1 1 1 2 2 2 2 3 3 3 3 3 3 4 3 5 6 7 6 7 7 5 5 4 4 4 5 4 3 2 3 6 6 7 7 6 6 5 5
1 1 1 1 1 1 1 1 2 1 2 2 2 3 2 2 3 3 3 3 3 3 4 4 4 5 6 6 6 6 6 4 3 3 4 8 7 7 7 7 7 6 5
2 2 1 1 1 1 1 1 2 1 1 1 2 2 2 2 2 3 2 3 3 3 3 4 4 5 5 6 5 6 6 5 5 4 4 10 9 9 8 8 7 7 6
2 2 2 2 2 2 2 1 1 1 1 2 2 2 2 2 2 3 3 3 3 3 3 3 4 4 4 4 6 5 5 5 5 5 4 6 10 10 9 8 8 8 8
3 2 2 3 2 2 2 1 1 1 1 1 1 2 2 2 3 3 3 3 2 3 3 4 4 4 4 4 5 5 4 5 5 5 5 4 5 9 10 10 9 9 9
2 3 2 3 3 3 2 2 2 2 2 1 1 2 3 3 3 3 2 2 2 2 3 3 3 4 4 4 4 4 4 4 5 5 5 5 4 5 7 12 12 11 10
3 3 3 3 3 3 3 3 3 2 2 2 2 2 2 3 3 3 3 2 2 3 2 3 3 3 3 3 3 4 4 4 4 5 6 6 6 5 5 8 12 13 12
3 3 3 3 3 3 3 3 2 3 2 2 2 2 2 2 3 3 3 2 2 3 3 3 3 3 3 3 4 4 4 3 3 4 5 4 5 6 6 6 5 8 12
3 3 3 4 3 3 2 2 2 1 1 1 1 2 2 2 3 3 2 2 2 3 3 3 3 3 2 2 3 3 3 4 4 4 3 4 5 5 5 5 4 4 5
3 3 3 4 4 3 2 2 2 2 1 1 1 2 2 2 2 2 3 2 2 3 3 2 2 2 1 1 2 2 2 3 4 4 3 3 4 3 4 5 5 5 4
3 4 4 4 4 3 3 3 3 3 2 2 2 1 1 1 1 2 2 2 2 2 2 2 2 2 2 1 1 2 2 1 1 3 3 3 3 3 3 3 4 4 4
4 3 4 4 4 3 4 4 4 2 1 1 0 0 1 1 1 1 2 2 2 2 2 2 2 1 2 1 1 1 1 2 2 1 2 2 3 3 3 3 3 3 4
3 3 3 4 3 3 3 4 4 2 2 1 1 1 1 1 1 1 1 2 2 2 2 2 2 1 2 2 1 1 1 2 2 2 0 2 2 2 2 2 2 2 3
2 2 3 4 3 2 3 3 4 4 3 2 1 1 0 0 1 0 1 1 2 2 2 2 2 2 1 2 1 1 2 2 1 2 2 0 1 1 2 2 2 2 2
Wind_Direction
294 295 315 22 42 53 62 61 65 66 66 73 75 78 83 80 80 88 94 98 101 98 96 96 96 96 91 93 95 93 91 99 104 106 107 110 113 111 110 108 107 100 108
267 298 327 30 52 59 61 59 64 69 73 78 76 79 81 79 78 83 90 86 89 90 87 89 91 92 93 93 96 96 93 90 94 93 93 96 102 102 99 102 106 105 105
16 347 348 47 69 62 60 62 63 71 77 76 76 78 79 83 84 79 84 84 83 82 78 79 82 85 92 93 93 93 93 91 90 84 77 61 81 99 99 100 105 105 102
67 16 25 64 72 67 66 65 64 72 75 75 76 79 80 83 85 81 78 80 80 77 74 74 77 79 87 95 94 93 92 91 92 84 65 53 63 99 99 96 97 98 94
53 21 25 65 70 69 69 67 68 72 75 73 71 75 78 81 83 83 79 75 73 75 76 75 74 79 87 93 95 94 93 93 91 80 65 57 52 92 98 94 89 89 90
44 13 18 62 64 65 69 70 68 68 71 71 69 69 71 77 81 81 83 79 73 72 75 76 74 79 87 90 90 92 97 96 88 78 70 64 62 92 96 93 91 87 86
47 15 16 61 62 64 69 67 67 65 63 66 68 68 68 72 73 74 77 75 72 70 72 75 74 74 80 88 92 95 94 94 83 75 67 61 68 88 94 89 88 84 81
81 42 24 46 59 62 64 68 68 67 65 66 65 65 65 66 64 65 67 67 66 66 68 72 75 77 81 88 91 92 93 87 83 72 63 52 75 84 87 85 80 81 80
67 52 29 18 27 38 47 60 64 67 66 63 60 59 62 62 59 58 57 58 59 60 62 67 76 81 81 83 85 82 84 80 72 60 61 46 67 77 83 87 86 86 79
48 34 28 23 25 23 24 46 60 64 62 57 53 53 56 52 48 49 46 49 55 57 56 64 76 79 78 78 78 75 76 76 62 53 34 47 64 73 77 83 84 86 81
42 10 21 24 19 19 22 44 51 53 51 49 45 47 45 32 26 30 38 47 51 53 54 64 72 73 69 67 67 67 69 65 57 48 29 52 63 73 76 79 78 77 80
258 288 16 27 16 18 31 39 31 43 43 46 48 41 38 35 31 35 35 46 52 53 51 58 63 63 60 52 54 57 59 62 55 41 41 55 62 70 71 72 77 79 80
222 275 121 65 35 49 43 38 31 35 39 39 44 46 45 44 37 33 30 32 38 46 43 46 49 51 55 51 47 47 50 53 43 26 33 56 63 68 71 68 70 78 81
176 219 199 135 80 67 70 52 53 47 46 46 40 49 58 54 46 36 37 33 40 42 49 48 52 53 55 54 52 49 46 44 38 25 29 48 58 64 67 63 64 69 72
185 206 179 140 131 100 76 51 68 54 53 55 50 55 74 77 66 54 46 45 46 49 57 58 56 54 51 50 53 54 47 42 38 33 21 37 47 52 57 58 57 61 67
191 189 169 157 154 119 105 92 74 67 68 65 58 63 75 85 83 72 58 53 48 51 61 64 65 61 55 54 51 52 48 44 39 36 30 27 37 41 43 47 51 56 60
188 173 167 160 133 125 117 103 87 76 80 69 63 70 80 89 92 89 72 58 50 55 65 68 63 60 62 57 50 48 48 44 43 38 34 28 25 35 39 42 47 51 55
166 160 166 151 127 118 109 100 81 70 73 69 66 70 81 89 95 93 82 65 59 59 65 73 67 64 58 58 50 42 42 43 42 41 41 35 30 29 33 42 46 50 52
168 160 149 134 130 122 106 89 78 68 62 59 62 67 79 85 95 99 91 77 72 72 63 77 70 78 73 67 66 51 40 41 37 44 44 39 37 34 31 38 44 45 45
148 146 142 132 123 111 95 81 66 58 48 48 56 65 83 88 95 100 98 88 83 83 68 70 77 70 77 74 71 58 43 39 41 42 40 41 41 40 37 33 31 34 38
138 143 150 140 137 125 108 104 92 69 39 37 42 61 80 94 98 98 102 92 88 96 101 97 92 79 66 69 76 55 35 40 46 41 37 40 40 38 40 38 34 29 24
161 160 158 157 155 150 132 125 123 118 92 57 27 45 65 89 100 110 112 114 106 107 101 99 101 98 70 62 101 93 38 15 20 29 32 40 33 32 39 40 37 34 26
177 179 174 168 162 151 128 107 84 65 46 34 26 23 25 80 94 108 123 124 121 123 132 130 121 116 118 55 72 125 129 167 343 0 23 33 27 31 29 30 38 32 28
197 178 162 159 156 153 142 136 135 134 145 204 200 349 19 53 84 112 125 128 130 129 138 152 126 129 131 123 53 46 114 152 142 32 356 13 24 29 19 23 27 26 26
176 163 159 155 158 160 152 150 146 142 153 139 94 78 49 35 60 101 128 129 137 142 158 163 132 135 137 146 143 126 94 74 101 136 154 343 11 12 14 15 16 14 16
128 142 148 154 167 167 161 157 160 161 156 141 137 141 94 344 358 55 138 141 156 159 172 175 160 147 141 136 137 144 150 146 157 143 160 218 343 337 3 10 9 0 6